Retour au catalogue

COSMOS 1867 COOLANT

ActifLEO
NORAD 39638·DEBRIS·🇷🇺 Russia

Lancé Jul 10, 1987 depuis Baikonur Cosmodrome

Loading…

Prochains Passages (prochaines 24 heures)

TLE

FraisSource: Space-Track

Époque: Sep 13, 2026, 03:02 UTC

1 39638U 87060F   26256.12681756  .00000134  00000-0  84439-4 0  9997
2 39638  65.0076 128.6117 0018119 284.3210  75.5863 14.33630218650085

Suivez COSMOS 1867 COOLANT en temps réel avec AllMySat

Download on the App Store